IT9RID Weather Reports


time (UTC)temp
C
wind
direction
speed
KPH
gust
KPH
rain 1hr
cm
rain 24hr
cm
rain mn
cm
humidity
%
barometer
mb
20260507102505 23 40 6.4 17.7 0.00 0.00 0.00 29 1010.0
20260507101506 23 159 9.7 17.7 0.00 0.00 0.00 30 1010.2
20260507100505 23 65 4.8 17.7 0.00 0.00 0.00 30 1009.8
20260507095504 23 84 6.4 17.7 0.00 0.00 0.00 30 1010.1
20260507094504 23 125 0.0 14.5 0.00 0.00 0.00 29 1010.3
20260507093504 23 94 0.0 16.1 0.00 0.00 0.00 33 1010.3
20260507092504 23 94 4.8 6.4 0.00 0.00 0.00 32 1010.1
20260507091504 23 109 14.5 27.4 0.00 0.00 0.00 32 1010.3
20260507090504 23 96 3.2 16.1 0.00 0.00 0.00 32 1010.2
20260507085503 22 92 12.9 27.4 0.00 0.00 0.00 32 1010.2
20260507084503 22 336 4.8 19.3 0.00 0.00 0.00 35 1010.4
20260507083503 22 174 0.0 24.1 0.00 0.00 0.00 37 1010.5
20260507082523 22 207 1.6 22.5 0.00 0.00 0.00 38 1010.7
20260507081503 22 130 1.6 12.9 0.00 0.00 0.00 38 1010.6
20260507080503 22 138 14.5 14.5 0.00 0.00 0.00 40 1010.7
20260507075503 21 86 16.1 25.7 0.00 0.00 0.00 40 1010.8
20260507074502 21 87 12.9 29.0 0.00 0.00 0.00 41 1011.0
20260507073502 21 74 12.9 24.1 0.00 0.00 0.00 42 1011.3
20260507072502 21 82 4.8 6.4 0.00 0.00 0.00 44 1011.3
20260507071502 20 104 0.0 16.1 0.00 0.00 0.00 44 1011.4
20260507070503 19 79 0.0 11.3 0.00 0.00 0.00 54 1011.6
20260507065501 19 240 0.0 4.8 0.00 0.00 0.00 56 1011.5
20260507064501 19 232 0.0 4.8 0.00 0.00 0.00 56 1011.5
20260507063501 20 157 0.0 4.8 0.00 0.00 0.00 47 1011.6
20260507062501 19 142 0.0 6.4 0.00 0.00 0.00 47 1011.8
20260507061502 19 143 8.0 14.5 0.00 0.00 0.00 46 1011.7
20260507060501 19 150 1.6 8.0 0.00 0.00 0.00 44 1011.7
20260507055501 18 77 0.0 4.8 0.00 0.00 0.00 50 1011.8
20260507054500 18 134 0.0 0.0 0.00 0.00 0.00 51 1011.8
20260507053500 18 134 0.0 0.0 0.00 0.00 0.00 48 1012.0
20260507052500 18 123 0.0 0.0 0.00 0.00 0.00 47 1011.8
20260507051500 18 123 0.0 0.0 0.00 0.00 0.00 46 1011.7
20260507050500 17 186 0.0 0.0 0.00 0.00 0.00 45 1011.7
20260507045500 17 186 0.0 0.0 0.00 0.00 0.00 46 1011.6
20260507044459 17 169 0.0 0.0 0.00 0.00 0.00 48 1011.7
20260507043459 17 169 0.0 0.0 0.00 0.00 0.00 48 1011.6
20260507042459 17 163 0.0 0.0 0.00 0.00 0.00 49 1011.5
20260507041459 17 163 0.0 0.0 0.00 0.00 0.00 46 1011.6
20260507040459 17 163 0.0 3.2 0.00 0.00 0.00 48 1011.6
20260507035459 17 192 0.0 0.0 0.00 0.00 0.00 47 1011.8
20260507034459 17 180 0.0 4.8 0.00 0.00 0.00 45 1011.8
20260507033459 17 153 0.0 0.0 0.00 0.00 0.00 50 1011.8
20260507032500 17 153 0.0 0.0 0.00 0.00 0.00 49 1011.5
20260507031458 17 153 0.0 0.0 0.00 0.00 0.00 48 1011.6
20260507030458 17 153 0.0 0.0 0.00 0.00 0.00 48 1011.8
20260507025458 18 153 0.0 3.2 0.00 0.00 0.00 46 1011.7
20260507024458 18 152 0.0 9.7 0.00 0.00 0.00 45 1011.6
20260507023458 18 115 0.0 3.2 0.00 0.00 0.00 44 1011.8
20260507022457 18 143 3.2 3.2 0.00 0.00 0.00 44 1011.7
20260507021457 18 175 0.0 1.6 0.00 0.00 0.00 43 1011.7
20260507020457 18 205 0.0 0.0 0.00 0.00 0.00 44 1011.7
20260507015457 18 209 0.0 0.0 0.00 0.00 0.00 45 1011.7
20260507014457 19 209 0.0 3.2 0.00 0.00 0.00 42 1011.7
20260507013457 19 146 0.0 0.0 0.00 0.00 0.00 42 1011.6
20260507012456 19 109 0.0 4.8 0.00 0.00 0.00 42 1011.4
20260507011456 19 147 0.0 0.0 0.00 0.00 0.00 42 1011.4
20260507010456 19 236 3.2 4.8 0.00 0.00 0.00 42 1011.7
20260507005456 19 150 0.0 0.0 0.00 0.00 0.00 43 1011.6
20260507004456 19 133 0.0 4.8 0.00 0.00 0.00 43 1011.5
20260507003456 19 147 0.0 3.2 0.00 0.00 0.00 45 1011.6
20260507002455 19 175 0.0 9.7 0.00 0.00 0.00 44 1011.6
20260507001455 19 209 4.8 8.0 0.00 0.00 0.00 44 1011.6
20260507000455 19 204 1.6 4.8 0.00 0.00 0.00 45 1011.8
20260506235455 19 194 1.6 6.4 0.00 0.00 0.00 44 1011.8
20260506234455 19 154 8.0 11.3 0.00 0.00 0.00 43 1011.8
20260506233455 20 175 1.6 11.3 0.00 0.00 0.00 43 1012.0
20260506232455 20 192 4.8 19.3 0.00 0.00 0.00 41 1012.1
20260506231454 20 193 8.0 19.3 0.00 0.00 0.00 41 1012.1
20260506230454 20 147 9.7 19.3 0.00 0.00 0.00 41 1011.9
20260506225454 20 200 12.9 20.9 0.00 0.00 0.00 41 1011.8
20260506224454 20 221 14.5 19.3 0.00 0.00 0.00 41 1011.7
20260506223454 20 148 16.1 24.1 0.00 0.00 0.00 42 1011.8
20260506222453 20 159 19.3 19.3 0.00 0.00 0.00 41 1011.6
20260506221454 20 110 4.8 12.9 0.00 0.00 0.00 40 1011.7
20260506220453 19 167 0.0 1.6 0.00 0.00 0.00 42 1011.8
20260506215453 19 128 16.1 16.1 0.00 0.00 0.00 45 1011.6
20260506214453 19 165 0.0 9.7 0.00 0.00 0.00 44 1011.5
20260506213453 18 212 0.0 17.7 0.00 0.00 0.00 47 1011.8
20260506212453 18 215 9.7 19.3 0.00 0.00 0.00 48 1011.5
20260506211542 18 207 3.2 6.4 0.00 0.00 0.00 51 1011.5
20260506210452 18 216 1.6 4.8 0.00 0.00 0.00 48 1010.7
20260506205452 18 151 0.0 1.6 0.00 0.00 0.00 44 1010.8
20260506204452 18 152 0.0 4.8 0.00 0.00 0.00 44 1011.4
20260506203452 19 202 0.0 1.6 0.00 0.00 0.00 45 1011.7
20260506202452 19 200 0.0 0.0 0.00 0.00 0.00 45 1011.6
20260506201452 19 162 0.0 0.0 0.00 0.00 0.00 46 1011.6
20260506200452 19 162 0.0 0.0 0.00 0.00 0.00 47 1012.0
20260506195451 20 154 4.8 4.8 0.00 0.00 0.00 37 1012.1
20260506194451 20 235 0.0 8.0 0.00 0.00 0.00 36 1012.3
20260506193451 20 146 0.0 4.8 0.00 0.00 0.00 37 1012.3
20260506192451 20 153 0.0 4.8 0.00 0.00 0.00 36 1012.1
20260506191451 20 170 3.2 4.8 0.00 0.00 0.00 43 1012.2
20260506190451 20 211 0.0 4.8 0.00 0.00 0.00 42 1012.4
20260506185450 20 188 0.0 4.8 0.00 0.00 0.00 41 1012.4
20260506184450 20 171 0.0 8.0 0.00 0.00 0.00 48 1012.4
20260506183450 20 205 3.2 17.7 0.00 0.00 0.00 52 1012.3
20260506182450 20 242 0.0 9.7 0.00 0.00 0.00 53 1012.4
20260506181450 20 261 0.0 6.4 0.00 0.00 0.00 54 1012.4
20260506180450 20 221 0.0 3.2 0.00 0.00 0.00 62 1012.5
20260506175449 20 224 0.0 0.0 0.00 0.00 0.00 63 1012.3
20260506174449 20 224 0.0 0.0 0.00 0.00 0.00 63 1012.3
20260506173449 20 223 0.0 0.0 0.00 0.00 0.00 62 1012.1
20260506172449 20 223 0.0 0.0 0.00 0.00 0.00 62 1012.0
20260506171449 20 217 3.2 6.4 0.00 0.00 0.00 63 1012.2
20260506170449 20 211 0.0 1.6 0.00 0.00 0.00 62 1012.2
20260506165448 20 202 3.2 4.8 0.00 0.00 0.00 63 1012.3
20260506164448 20 242 0.0 4.8 0.00 0.00 0.00 63 1012.5
20260506163448 20 253 1.6 6.4 0.00 0.00 0.00 63 1012.6
20260506162448 20 221 0.0 12.9 0.00 0.00 0.00 65 1012.5
20260506161448 20 241 0.0 9.7 0.00 0.00 0.00 68 1012.6
20260506160448 20 234 3.2 6.4 0.00 0.00 0.00 71 1012.7
20260506155447 20 308 4.8 12.9 0.00 0.00 0.00 72 1012.7
20260506154447 20 232 1.6 12.9 0.00 0.00 0.00 71 1012.5
20260506153447 21 275 4.8 14.5 0.00 0.00 0.00 64 1012.4
20260506152447 22 254 6.4 12.9 0.00 0.00 0.00 51 1012.2
20260506151447 22 229 6.4 9.7 0.00 0.00 0.00 47 1012.1
20260506150447 23 171 3.2 12.9 0.00 0.00 0.00 42 1011.9
20260506145447 22 215 12.9 16.1 0.00 0.00 0.00 50 1011.9
20260506144446 23 194 0.0 20.9 0.00 0.00 0.00 47 1012.0
20260506143446 23 142 1.6 19.3 0.00 0.00 0.00 46 1012.0
20260506142446 23 331 3.2 19.3 0.00 0.00 0.00 46 1011.9
20260506141446 24 237 16.1 19.3 0.00 0.00 0.00 47 1011.7
20260506140446 24 217 6.4 16.1 0.00 0.00 0.00 42 1011.4
20260506135446 24 172 6.4 17.7 0.00 0.00 0.00 44 1011.3
20260506134446 25 244 9.7 20.9 0.00 0.00 0.00 42 1011.6
20260506133445 25 170 12.9 20.9 0.00 0.00 0.00 40 1011.6
20260506132445 26 200 14.5 17.7 0.00 0.00 0.00 38 1011.6
20260506131445 26 220 12.9 16.1 0.00 0.00 0.00 36 1011.5
20260506130445 26 195 8.0 16.1 0.00 0.00 0.00 38 1011.7
20260506125448 26 150 6.4 16.1 0.00 0.00 0.00 42 1011.8
20260506124445 26 162 1.6 25.7 0.00 0.00 0.00 40 1012.1
20260506123444 26 192 4.8 11.3 0.00 0.00 0.00 41 1012.0
20260506122444 27 134 1.6 14.5 0.00 0.00 0.00 42 1012.1
20260506121444 26 256 4.8 6.4 0.00 0.00 0.00 44 1011.9
20260506120444 25 84 4.8 14.5 0.00 0.00 0.00 47 1012.0
20260506115444 25 77 4.8 16.1 0.00 0.00 0.00 47 1012.1
20260506114444 25 62 6.4 11.3 0.00 0.00 0.00 46 1012.3
20260506113444 25 55 6.4 9.7 0.00 0.00 0.00 47 1012.4
20260506112443 25 22 6.4 14.5 0.00 0.00 0.00 47 1012.5
20260506111443 25 55 4.8 16.1 0.00 0.00 0.00 47 1012.7
20260506110443 25 36 4.8 12.9 0.00 0.00 0.00 46 1012.7
20260506105443 25 21 6.4 9.7 0.00 0.00 0.00 46 1012.8
20260506104443 25 34 8.0 16.1 0.00 0.00 0.00 45 1013.1